Pecos, TX

1:11 AM CDT on August 22, 2017 (GMT -0500)
Pecos Municipal

Weather History for KPEQ - January, 2013

Change the Weather History Date:

Wednesday, January 9, 2013

  Actual Average Record
Temperature  
Mean Temperature 38 °F -  
Max Temperature 41 °F 54 °F 85 °F (2017)
Min Temperature 36 °F 25 °F 6 °F (1967)
Degree Days  
Heating Degree Days 26    
Moisture  
Dew Point 37 °F    
Average Humidity 92    
Maximum Humidity 96    
Minimum Humidity 87    
Precipitation  
Precipitation 0.02 in - - ()
Sea Level Pressure  
Sea Level Pressure 30.12 in    
Wind  
Wind Speed 13 mph (NW)    
Max Wind Speed 24 mph    
Max Gust Speed 31 mph    
Visibility 4 miles    
Events Rain    
Averages and records for this station are not official NWS values.
T = Trace of Precipitation, MM = Missing Value Source: NWS Daily Summary

Daily Weather History Graph

Daily Weather History Graph

Search for Another Location

Airport or City:

Trip Planner

Search our weather history database for the weather conditions in past years. The results will help you decide how hot, cold, wet, or windy it might be!

Date:

Astronomy

Jan. 09, 2013 Rise Set
Actual Time 7:54 AM CST 6:08 PM CST
Civil Twilight 7:27 AM CST 6:35 PM CST
Nautical Twilight 6:57 AM CST 7:05 PM CST
Astronomical Twilight 6:28 AM CST 7:34 PM CST
Moon 5:35 AM CST (1/9) 4:13 PM CST (1/9)
Length of Visible Light 11h 07m
Length of Day
10h 14m
Waning Crescent, 6% of the Moon is Illuminated
Jan 9
Waning Crescent
Jan 11
New
Jan 18
First Quarter
Jan 26
Full
Feb 3
Last Quarter

Hourly Weather History & Observations

Time (CST) Temp. Windchill Dew Point Humidity Pressure Visibility Wind Dir Wind Speed Gust Speed Precip Events Conditions
12:15 AM 36.9 °F 30.1 °F 33.8 °F 89% 30.07 in 5.0 mi West 9.2 mph - N/A   Overcast
12:35 AM 37.9 °F 32.1 °F 34.5 °F 87% 30.11 in 7.0 mi West 8.1 mph - N/A   Overcast
12:55 AM 37.8 °F 31.8 °F 34.7 °F 89% 30.10 in 4.0 mi WSW 8.1 mph - N/A   Overcast
1:15 AM 37.4 °F 30.8 °F 34.9 °F 91% 30.11 in 3.0 mi WSW 9.2 mph - N/A   Overcast
1:35 AM 37.4 °F 32.1 °F 35.6 °F 93% 30.12 in 2.5 mi West 6.9 mph - N/A   Overcast
1:55 AM 37.6 °F 31.0 °F 35.8 °F 93% 30.10 in 2.0 mi WNW 9.2 mph - N/A   Overcast
2:15 AM 38.3 °F 31.4 °F 36.7 °F 94% 30.10 in 2.0 mi WNW 10.4 mph - N/A   Overcast
2:35 AM 39.0 °F 32.8 °F 37.4 °F 94% 30.11 in 1.8 mi WNW 9.2 mph - N/A   Overcast
2:55 AM 39.2 °F 32.0 °F 37.8 °F 95% 30.10 in 1.8 mi WNW 11.5 mph - N/A   Overcast
3:15 AM 39.2 °F 32.0 °F 38.1 °F 96% 30.11 in 1.8 mi WNW 11.5 mph - N/A   Overcast
3:35 AM 39.6 °F 32.5 °F 38.3 °F 95% 30.11 in 2.5 mi NW 11.5 mph - N/A   Overcast
3:55 AM 39.7 °F 31.9 °F 38.5 °F 95% 30.11 in 3.0 mi NW 13.8 mph - N/A   Overcast
4:15 AM 39.6 °F 31.7 °F 38.3 °F 95% 30.10 in 3.0 mi NW 13.8 mph - N/A   Light Drizzle
4:35 AM 39.6 °F 31.3 °F 38.3 °F 95% 30.12 in 2.5 mi NW 15.0 mph - N/A   Overcast
4:55 AM 40.1 °F 31.3 °F 38.5 °F 94% 30.11 in 2.0 mi NW 17.3 mph - N/A   Drizzle
5:15 AM 39.6 °F 30.6 °F 38.3 °F 95% 30.12 in 2.5 mi NW 17.3 mph 24.2 mph N/A Rain Rain
5:35 AM 39.2 °F 29.3 °F 37.4 °F 93% 30.12 in 5.0 mi NW 20.7 mph 25.3 mph N/A Rain Light Rain
5:55 AM 39.2 °F 29.3 °F 37.0 °F 92% 30.11 in 4.0 mi NW 20.7 mph 26.5 mph N/A Rain Rain
6:15 AM 39.2 °F 29.6 °F 36.9 °F 91% 30.11 in 5.0 mi NW 19.6 mph - N/A Rain Light Rain
6:35 AM 38.5 °F 28.9 °F 36.1 °F 91% 30.12 in 4.0 mi NW 18.4 mph - N/A   Overcast
7:15 AM 38.3 °F 29.0 °F 35.8 °F 91% 30.15 in 4.0 mi NW 17.3 mph - N/A Rain Light Rain
8:15 AM 39.0 °F 30.6 °F 37.0 °F 93% 30.19 in 4.0 mi NW 15.0 mph - N/A   Overcast
8:35 AM 39.2 °F 31.2 °F 37.4 °F 93% 30.20 in 2.0 mi NW 13.8 mph - N/A   Drizzle
8:55 AM 39.4 °F 31.1 °F 37.6 °F 93% 30.21 in 1.5 mi NW 15.0 mph - N/A   Light Drizzle
9:15 AM 39.2 °F 30.8 °F 37.6 °F 94% 30.21 in 3.0 mi NW 15.0 mph - N/A   Light Drizzle
9:35 AM 38.3 °F 28.7 °F 36.5 °F 93% 30.22 in 5.0 mi NW 18.4 mph - N/A   Overcast
9:55 AM 38.5 °F 29.9 °F 36.9 °F 94% 30.22 in 5.0 mi NW 15.0 mph - N/A   Overcast
10:15 AM 38.5 °F 30.3 °F 36.9 °F 94% 30.23 in 5.0 mi NW 13.8 mph - N/A   Drizzle
10:55 AM 38.7 °F 29.8 °F 37.0 °F 94% 30.22 in 4.0 mi NW 16.1 mph - N/A   Drizzle
11:15 AM 38.5 °F 29.2 °F 36.9 °F 94% 30.19 in 1.8 mi NW 17.3 mph - N/A Rain Rain
12:15 PM 38.8 °F 29.1 °F 37.2 °F 94% 30.16 in 2.5 mi NW 19.6 mph 25.3 mph N/A Rain Rain
12:55 PM 39.2 °F 29.3 °F 37.6 °F 94% 30.14 in 1.8 mi NW 20.7 mph - N/A Rain Rain
1:35 PM 40.1 °F 30.5 °F 38.3 °F 93% 30.11 in 2.0 mi NNW 20.7 mph - N/A Rain Light Rain
1:55 PM 39.9 °F 30.8 °F 38.3 °F 94% 30.10 in 3.0 mi NNW 18.4 mph - N/A Rain Rain
2:55 PM 40.1 °F 29.7 °F 37.9 °F 92% 30.07 in 5.0 mi NW 24.2 mph 27.6 mph N/A Rain Light Rain
3:15 PM 40.1 °F 29.9 °F 37.8 °F 91% 30.07 in 5.0 mi NW 23.0 mph 28.8 mph N/A Rain Rain
3:35 PM 39.7 °F 29.5 °F 37.4 °F 91% 30.07 in 4.0 mi NW 23.0 mph 31.1 mph N/A Rain Rain
3:55 PM 40.1 °F 30.2 °F 37.4 °F 90% 30.07 in 4.0 mi NW 21.9 mph 25.3 mph N/A Rain Rain
4:15 PM 40.1 °F 30.2 °F 36.9 °F 88% 30.07 in 5.0 mi NW 21.9 mph 26.5 mph N/A Rain Rain
4:35 PM 40.3 °F 31.3 °F 36.9 °F 88% 30.07 in 4.0 mi NW 18.4 mph - N/A Rain Rain
4:55 PM 40.5 °F 31.2 °F 37.4 °F 89% 30.07 in 4.0 mi NW 19.6 mph - N/A Rain Rain
5:55 PM 41.0 °F 33.9 °F 38.3 °F 90% 30.07 in 5.0 mi NW 12.7 mph - N/A Rain Rain
6:15 PM 41.0 °F 38.0 °F 38.7 °F 91% 30.09 in 4.0 mi NNW 4.6 mph - N/A Rain Heavy Rain
6:35 PM 41.0 °F 39.0 °F 38.7 °F 91% 30.10 in 2.5 mi NNW 3.5 mph - N/A   Overcast
7:15 PM 40.3 °F - 38.7 °F 94% 30.11 in 2.0 mi Calm Calm - 0.01 in Rain Heavy Rain
7:35 PM 40.1 °F 34.7 °F 38.3 °F 93% 30.10 in 4.0 mi NW 8.1 mph - 0.01 in Rain Heavy Rain
7:55 PM 39.4 °F 33.2 °F 37.4 °F 93% 30.10 in 7.0 mi NW 9.2 mph - 0.01 in Rain Rain
8:15 PM 39.2 °F 33.0 °F 36.9 °F 91% 30.09 in 10.0 mi NW 9.2 mph - N/A Rain Light Rain
8:35 PM 39.2 °F 33.6 °F 36.9 °F 91% 30.09 in 10.0 mi West 8.1 mph - N/A Rain Rain
8:55 PM 39.2 °F 33.0 °F 36.9 °F 91% 30.08 in 10.0 mi West 9.2 mph - N/A Rain Light Rain
9:55 PM 40.1 °F 32.0 °F 38.3 °F 93% 30.09 in 7.0 mi WNW 15.0 mph 18.4 mph N/A   Drizzle
10:15 PM 40.5 °F 32.1 °F 38.5 °F 93% 30.09 in 7.0 mi WNW 16.1 mph - N/A   Light Drizzle
10:35 PM 40.6 °F 32.3 °F 38.7 °F 93% 30.09 in 5.0 mi WNW 16.1 mph 20.7 mph N/A   Overcast
11:15 PM 41.0 °F 32.5 °F 39.2 °F 93% 30.08 in 10.0 mi WNW 17.3 mph - N/A   Overcast
11:35 PM 41.0 °F 33.1 °F 39.2 °F 93% 30.08 in 7.0 mi WNW 15.0 mph - N/A   Overcast
11:55 PM 41.0 °F 32.5 °F 38.8 °F 92% 30.09 in 10.0 mi WNW 17.3 mph 24.2 mph 0.01 in   Overcast